Regional Weather Roundup
Issued by NWS Northern Indiana

Home | Current Version | Previous Version | Text Only | Print | Product List | Glossary Off
Versions: 1 2 3 4 5 6 7 8 9 10 11 12 13 14 15 16 17 18 19 20 21 22 23 24 25 26 27 28 29 30 31 32 33 34 35 36 37 38 39 40 41 42 43 44 45 46 47 48 49 50

000
ASUS43 KIWX 242010
RWRIWX

KIWX WEATHER ROUNDUP
NATIONAL WEATHER SERVICE NORTHERN INDIANA
400 PM EDT THU JUL 24 2014

NOTE: "FAIR" INDICATES FEW OR NO CLOUDS BELOW 12,000 FEET WITH NO
SIGNIFICANT WEATHER AND/OR OBSTRUCTIONS TO VISIBILITY.

* THESE STATIONS ARE NOT UNDER NWS QUALITY CONTROL. THEY ALSO MAY NOT
  REPORT WEATHER SUCH AS PRECIPITATION OR FOG.

INZ001>027-242100-
NORTHERN INDIANA

CITY           SKY/WX    TMP DP  RH WIND       PRES   REMARKS
GARY*          MOSUNNY   72  55  56 NE14      30.14F
VALPARAISO     MOSUNNY   73  55  53 NW7       30.12F
MICHIGAN CITY* SUNNY     68  52  56 N9        30.13F
LAPORTE*       MOSUNNY   71  54  54 N12       30.13F
KNOX*          MOSUNNY   73  52  47 N3        30.11F
SOUTH BEND     MOSUNNY   74  50  42 N7        30.12F
GOSHEN         MOSUNNY   75  51  43 NW9       30.10F
MONTICELLO*    MOSUNNY   74  57  55 N7        30.11F
LOGANSPORT*    PTSUNNY   72  50  46 NE3       30.11F
ROCHESTER*     PTSUNNY   77  50  38 NE7       30.11F
WARSAW*        MOSUNNY   72  52  49 CALM      30.11S
ANGOLA*        SUNNY     73  48  40 NE5       30.10F
FORT WAYNE     MOSUNNY   76  50  40 N6        30.09F
HUNTINGTON*    MOSUNNY   76  50  40 NE7       30.09S
PERU/GRISSOM   MOSUNNY   75  55  49 VRB5      30.10F
MARION*        MOSUNNY   73  49  43 NE3       30.10F

$$
INZ028>050-242100-
CENTRAL INDIANA

CITY           SKY/WX    TMP DP  RH WIND       PRES   REMARKS
LAFAYETTE      MOSUNNY   75  52  44 VRB7      30.09F
KOKOMO*        PTSUNNY   77  54  44 N10       30.10F
MUNCIE*        MOSUNNY   76  51  41 NE12      30.09F
INDIANAPOLIS   MOSUNNY   76  51  41 N10G17    30.09F

$$
MIZ043>046-050>051-056>058-064>065-071>073-077>080-242100-
SOUTHWEST LOWER MICHIGAN

CITY           SKY/WX    TMP DP  RH WIND       PRES   REMARKS
BATTLE CREEK   MOSUNNY   73  48  41 N7        30.11F
BENTON HARBOR  SUNNY     67  53  61 NW9G18    30.13F
COLDWATER*     MOSUNNY   73  50  44 E7        30.10F
HILLSDALE*     MOSUNNY   72  48  42 N7        30.11F
HOLLAND        SUNNY     70  53  54 NW8       30.13F
GRAND RAPIDS   PTSUNNY   73  51  46 VRB5      30.11F
KALAMAZOO      PTSUNNY   73  48  41 VRB6      30.10F
STURGIS*       MOSUNNY   72  54  53 NE6       30.10F
THREE RIVERS*  PTSUNNY   74  53  48 NE3       30.10F

$$
OHZ001>008-015>018-024>025-242100-
NORTHWEST OHIO

CITY           SKY/WX    TMP DP  RH WIND       PRES   REMARKS
WAUSEON*       FAIR      75  50  41 NE8       30.09F
DEFIANCE       PTSUNNY   77  50  38 NE9       30.09F
FINDLAY        MOSUNNY   74  49  41 NE12      30.08S
TOLEDO EXPRESS PTSUNNY   75  48  38 NE10      30.08F
TOLEDO METCALF MOSUNNY   74  49  41 NE8       30.10S
LIMA           CLOUDY    72  54  53 NE10      30.09S

$$
&&



USA.gov is the U.S. government's official web portal to all federal, state and local government web resources and services.